FW4495 Edgewater MD US current weather conditions

sailwx.info

Wind from 250 at 5 knots gusting 12

Air temperature 12.2° C
Dewpoint -1.3° C

Last reported at 2019-Dec-06 19:00 UTC.
Time now 2019-Dec-06 20:15 UTC

Location: N 38°55' W 076°34'.
View on Google Maps.

See reports from other nearby stations

  
Tides and Currents Weather Stations Pressure Air Temp Water Temp Dewpoint Dewpoint Depression Visibility Wind Speed Wind Dir Waves Ship Positions
date/time (UTC)wind fromknots sea level pressurealtimeterstation pressurevisibilityair tempwater tempwave heightnotes
2019-Dec-06 19:00 250 5 gusting 12 12.2
2019-Dec-06 18:46 188 5 gusting 12 12.2
2019-Dec-06 18:31 228 5 gusting 9 12.2
2019-Dec-06 18:15 239 6 gusting 10 12.2
2019-Dec-06 18:01 209 6 gusting 13 11.7
2019-Dec-06 17:46 240 5 gusting 9 11.7
2019-Dec-06 17:31 211 4 gusting 7 11.1
2019-Dec-06 17:16 156 2 gusting 6 11.1
2019-Dec-06 17:00 185 2 gusting 7 10.6
2019-Dec-06 16:45 184 3 gusting 9 10.6
2019-Dec-06 16:30 198 2 gusting 7 10.6
2019-Dec-06 16:15 212 3 gusting 8 10.6
2019-Dec-06 16:00 177 5 gusting 16 10.0
2019-Dec-06 15:47 227 4 gusting 12 10.0
2019-Dec-06 15:45 188 4 gusting 12 10.0
2019-Dec-06 15:31 164 5 gusting 12 9.4
2019-Dec-06 15:17 243 6 gusting 13 8.9
2019-Dec-06 15:02 172 5 gusting 9 8.3
2019-Dec-06 14:46 209 4 gusting 9 7.8
2019-Dec-06 14:31 209 2 gusting 6 7.2
2019-Dec-06 14:16 212 2 gusting 6 6.1
2019-Dec-06 14:01 183 2 gusting 6 6.1
2019-Dec-06 13:46 159 3 gusting 6 5.6
2019-Dec-06 13:30 173 1 gusting 6 4.4
2019-Dec-06 13:15 195 1 gusting 5 3.9
2019-Dec-06 13:00 163 2 gusting 6 3.3
2019-Dec-06 12:45 177 1 gusting 5 2.8
2019-Dec-06 12:30 182 1 gusting 4 2.2
2019-Dec-06 12:15 221 0 gusting 2 2.2
2019-Dec-06 12:01 227 0 gusting 3 1.7
2019-Dec-06 11:45 222 0 gusting 1 1.1
2019-Dec-06 11:30 222 0 gusting 2 1.7
2019-Dec-06 11:15 222 1.7
2019-Dec-06 11:00 223 0 gusting 2 1.1
2019-Dec-06 10:45 223 0 gusting 2 1.1
2019-Dec-06 10:30 209 0 gusting 1 0.6
2019-Dec-06 10:02 209 1.7
2019-Dec-06 10:00 209 1.7
2019-Dec-06 09:46 209 0 gusting 1 1.7
2019-Dec-06 09:32 209 0 gusting 4 2.2
2019-Dec-06 09:17 215 0 gusting 3 2.2
2019-Dec-06 09:01 198 0 gusting 2 2.2
2019-Dec-06 08:46 193 1 gusting 3 2.2
2019-Dec-06 08:31 217 1 gusting 4 1.7
2019-Dec-06 08:16 192 1 gusting 3 1.7
2019-Dec-06 08:01 236 0 gusting 2 1.1
2019-Dec-06 07:46 236 0 gusting 2 1.7
2019-Dec-06 07:31 288 1.1
2019-Dec-06 07:16 288 0 gusting 1 1.1
2019-Dec-06 07:01 288 1.1
2019-Dec-06 06:46 288 1.1
2019-Dec-06 06:31 288 1.1
2019-Dec-06 06:17 288 1.1
2019-Dec-06 06:01 288 0 gusting 1 1.1
2019-Dec-06 05:47 288 1.7
2019-Dec-06 05:31 288 1.7
2019-Dec-06 05:16 288 1.1
2019-Dec-06 05:01 288 0 gusting 1 1.1
2019-Dec-06 04:46 288 0 gusting 1 1.1
2019-Dec-06 04:31 288 1.1
2019-Dec-06 04:16 288 1.1
2019-Dec-06 04:00 288 0.6
2019-Dec-06 03:45 288 0.6
2019-Dec-06 03:30 288 0.6
2019-Dec-06 03:15 288 0.6
2019-Dec-06 03:00 288 0 gusting 1 0.6
2019-Dec-06 02:45 288 1.1
2019-Dec-06 02:30 288 0 gusting 1 1.1
2019-Dec-06 02:15 288 0 gusting 1 1.1
2019-Dec-06 02:00 288 1.7
2019-Dec-06 01:45 288 1.7
2019-Dec-06 01:30 288 2.2
2019-Dec-06 01:15 288 2.2
2019-Dec-06 01:02 288 2.8
2019-Dec-06 00:48 288 2.8
2019-Dec-06 00:31 288 0 gusting 1 3.3
2019-Dec-06 00:01 288 3.9
2019-Dec-05 23:46 288 3.9
2019-Dec-05 23:31 288 4.4
2019-Dec-05 23:16 263 4.4
2019-Dec-05 23:01 272 0 gusting 2 5.0
2019-Dec-05 22:46 334 5.6
2019-Dec-05 22:32 296 0 gusting 2 6.1
2019-Dec-05 22:16 202 0 gusting 6 6.1
2019-Dec-05 22:01 310 0 gusting 6 6.7
2019-Dec-05 21:46 279 1 gusting 3 6.7
2019-Dec-05 21:31 259 7.2
2019-Dec-05 21:15 340 3 gusting 7 7.2
2019-Dec-05 21:01 313 2 gusting 6 7.8
2019-Dec-05 20:45 163 1 gusting 10 8.3
2019-Dec-05 20:30 317 0 gusting 8 8.3
2019-Dec-05 20:16 319 1 gusting 13 8.3
2019-Dec-05 20:00 285 3 gusting 15 8.3
2019-Dec-05 19:45 331 2 gusting 10 8.3
2019-Dec-05 19:30 300 5 gusting 11 8.3
2019-Dec-05 19:15 205 4 gusting 13 8.3
2019-Dec-05 19:00 190 6 gusting 15 8.3
2019-Dec-05 18:45 005 6 gusting 15 7.8
2019-Dec-05 18:30 013 3 gusting 12 7.8
2019-Dec-05 18:15 313 6 gusting 16 7.8
2019-Dec-05 18:00 182 6 gusting 13 7.8
2019-Dec-05 17:45 225 4 gusting 20 7.8
2019-Dec-05 17:30 078 5 gusting 13 7.2
2019-Dec-05 17:15 275 6 gusting 14 7.2
2019-Dec-05 17:00 144 4 gusting 16 7.2
2019-Dec-05 16:45 014 5 gusting 13 7.2
2019-Dec-05 16:30 168 4 gusting 18 6.1
2019-Dec-05 16:15 209 4 gusting 14 7.2
2019-Dec-05 16:01 256 5 gusting 13 6.7
2019-Dec-05 15:47 248 5 gusting 12 6.1
2019-Dec-05 15:33 248 4 gusting 15 6.1
2019-Dec-05 15:17 309 5 gusting 9 6.1
2019-Dec-05 15:01 180 3 gusting 9 6.1
2019-Dec-05 14:46 252 4 gusting 8 6.1
2019-Dec-05 14:32 234 1 gusting 8 6.1
2019-Dec-05 14:16 257 3 gusting 8 6.1
2019-Dec-05 14:01 224 2 gusting 6 5.6
2019-Dec-05 13:45 005 0 gusting 6 5.6
2019-Dec-05 13:31 277 3 gusting 7 5.0
2019-Dec-05 13:17 005 2 gusting 7 4.4
2019-Dec-05 13:00 181 3 gusting 8 4.4
2019-Dec-05 12:45 062 1 gusting 6 3.9
2019-Dec-05 12:30 304 2 gusting 8 3.9
2019-Dec-05 12:15 208 2 gusting 8 4.4
2019-Dec-05 12:00 319 2 gusting 13 4.4
2019-Dec-05 11:45 079 2 gusting 8 4.4
2019-Dec-05 11:30 215 2 gusting 6 4.4
2019-Dec-05 11:15 138 1 gusting 6 4.4
2019-Dec-05 11:00 172 1 gusting 5 4.4
2019-Dec-05 10:45 232 0 gusting 4 3.9
2019-Dec-05 10:30 215 1 gusting 4 4.4
2019-Dec-05 10:15 282 1 gusting 6 4.4
2019-Dec-05 10:02 203 2 gusting 6 4.4
2019-Dec-05 09:47 213 3 gusting 7 4.4
2019-Dec-05 09:31 187 1 gusting 7 4.4
2019-Dec-05 09:17 247 2 gusting 7 3.9
2019-Dec-05 09:02 201 0 gusting 6 4.4
2019-Dec-05 08:47 246 1 gusting 6 4.4
2019-Dec-05 08:32 186 1 gusting 3 4.4
2019-Dec-05 08:16 229 0 gusting 6 4.4
2019-Dec-05 08:01 205 2 gusting 6 4.4
2019-Dec-05 07:45 196 4.4
2019-Dec-05 07:31 219 4.4
2019-Dec-05 07:16 220 0 gusting 4 4.4
2019-Dec-05 07:01 217 1 gusting 6 5.0
2019-Dec-05 06:46 242 2 gusting 7 4.4
2019-Dec-05 06:31 219 1 gusting 5 4.4
2019-Dec-05 06:15 239 0 gusting 4 4.4
2019-Dec-05 06:01 229 0 gusting 2 4.4
2019-Dec-05 05:46 230 4.4
2019-Dec-05 05:31 192 5.0
2019-Dec-05 05:15 251 0 gusting 3 5.6
2019-Dec-05 05:00 211 0 gusting 7 5.6
2019-Dec-05 04:45 255 3.9
2019-Dec-05 04:30 226 0 gusting 2 3.9
2019-Dec-05 04:15 246 3.9
2019-Dec-05 04:00 246 3.9
2019-Dec-05 03:45 246 3.9
2019-Dec-05 03:30 246 3.9
2019-Dec-05 03:15 225 2.8
2019-Dec-05 03:00 225 2.8
2019-Dec-05 02:45 225 0 gusting 2 3.3
2019-Dec-05 02:30 225 3.9
2019-Dec-05 02:15 225 0 gusting 1 3.9
2019-Dec-05 02:00 225 5.0
2019-Dec-05 01:45 225 0 gusting 2 5.0
2019-Dec-05 01:30 234 0 gusting 2 5.6
2019-Dec-05 01:15 202 1 gusting 5 6.1
2019-Dec-05 01:00 238 1 gusting 9 6.1
2019-Dec-05 00:45 232 0 gusting 5 6.7
2019-Dec-05 00:30 189 2 gusting 6 6.7
2019-Dec-05 00:15 260 2 gusting 8 6.1
2019-Dec-05 00:01 284 2 gusting 6 5.6
2019-Dec-04 23:47 236 5.0
2019-Dec-04 23:32 237 0 gusting 2 5.6
2019-Dec-04 23:17 188 6.1
2019-Dec-04 23:01 187 0 gusting 3 6.1
2019-Dec-04 22:47 215 1 gusting 4 6.1
2019-Dec-04 22:31 225 1 gusting 5 6.7
2019-Dec-04 22:17 216 1 gusting 3 6.7
2019-Dec-04 22:02 209 2 gusting 6 6.7
2019-Dec-04 21:48 186 1 gusting 10 7.2
2019-Dec-04 21:32 239 1 gusting 3 8.3
2019-Dec-04 21:17 234 0 gusting 3 8.3
2019-Dec-04 21:01 231 1 gusting 3 8.3
2019-Dec-04 20:47 212 1 gusting 3 8.9
2019-Dec-04 20:31 217 8.3
2019-Dec-04 20:16 209 1 gusting 6 8.3
2019-Dec-04 20:01 225 2 gusting 5 8.3